Location: Dal�� Lhota
(48.7500°N, 14.0167°E)
Time: 18:33:12
(UTC+00:00)

Vanguard 3 - Pass Details

Date: 09 August 2021
Orbit: 510 x 3260 km, 33.3° (Epoch: 20 September)

Event Time Altitude Azimuth Distance (km) Brightness Sun altitude
Rises 16:55:52 0° 252° (WSW) 4,974 12.4 13.9°
Reaches altitude 10° 16:58:52 10° 246° (WSW) 4,309 12.0 13.4°
Maximum altitude 17:10:34 44° 180° (S) 3,349 10.3 11.5°
Drops below altitude 10° 17:27:37 10° 117° (ESE) 6,151 11.0 8.8°
Sets 17:32:57 0° 112° (ESE) 7,224 11.3 7.9°
